This is the latest recevied weather packets stored in our database for station/object K6CED. If no packets are shown the sender has not sent any weather packets the latest 1 day(s).
| Time | Temp. | Humidity | Pressure | Rain* | Wind** | Luminosity | Snow |
|---|---|---|---|---|---|---|---|
| 1836274796 | 21.67° C | 80% | 1015.6 hPa | 0 mm | 0.45 m/s, 26° | 0 W/m² | - |
| 1836274494 | 21.67° C | 80% | 1015.5 hPa | 0 mm | 0.45 m/s, 19° | 0 W/m² | - |
| 1836274348 | 21.67° C | 80% | 1015.8 hPa | 0 mm | 0.45 m/s, 89° | 0 W/m² | - |
| 1836274193 | 21.67° C | 80% | 1015.7 hPa | 0 mm | 0.89 m/s, 32° | 0 W/m² | - |
| 1836273892 | 22.22° C | 80% | 1015.5 hPa | 0 mm | 0.89 m/s, 348° | 0 W/m² | - |
| 1778043217 | 12.22° C | 85% | 1019.2 hPa | 0 mm | 1.34 m/s, 105° | 0 W/m² | - |
| 1778042913 | 12.22° C | 85% | 1019.2 hPa | 0 mm | 0.89 m/s, 81° | 0 W/m² | - |
| 1778042612 | 12.22° C | 84% | 1019.2 hPa | 0 mm | 0.89 m/s, 30° | 0 W/m² | - |
| 1778042308 | 12.22° C | 84% | 1018.8 hPa | 0 mm | 0.45 m/s, 98° | 0 W/m² | - |
| 1778042006 | 12.22° C | 83% | 1018.9 hPa | 0 mm | 1.34 m/s, 22° | 0 W/m² | - |
| 1778041704 | 12.22° C | 82% | 1019.1 hPa | 0 mm | 0.89 m/s, 68° | 0 W/m² | - |
| 1778041403 | 12.78° C | 81% | 1018.7 hPa | 0 mm | 0.45 m/s, 63° | 0 W/m² | - |
| 1778041101 | 12.78° C | 81% | 1018.9 hPa | 0 mm | 0.89 m/s, 61° | 0 W/m² | - |
| 1778040798 | 12.78° C | 80% | 1018.6 hPa | 0 mm | 0.89 m/s, 97° | 0 W/m² | - |
| 1778040495 | 12.78° C | 79% | 1018.5 hPa | 0 mm | 0.89 m/s, 31° | 0 W/m² | - |
| 1778040192 | 12.78° C | 79% | 1018.5 hPa | 0 mm | 0 m/s | 0 W/m² | - |
| 1778039888 | 12.78° C | 79% | 1018.4 hPa | 0 mm | 2.24 m/s, 88° | 0 W/m² | - |
| 1778039586 | 12.78° C | 78% | 1018.2 hPa | 0 mm | 2.24 m/s, 96° | 0 W/m² | - |
| 1778039283 | 13.33° C | 78% | 1018.5 hPa | 0 mm | 0.45 m/s, 357° | 0 W/m² | - |
| 1778038980 | 13.33° C | 78% | 1018.4 hPa | 0 mm | 1.79 m/s, 25° | 0 W/m² | - |
| 1778038677 | 13.33° C | 78% | 1018.1 hPa | 0 mm | 0.89 m/s, 17° | 0 W/m² | - |
| 1778038373 | 13.33° C | 77% | 1018.2 hPa | 0 mm | 0 m/s | 0 W/m² | - |
| 1778038070 | 13.33° C | 77% | 1018.1 hPa | 0 mm | 1.79 m/s, 22° | 0 W/m² | - |
| 1778037767 | 13.33° C | 77% | 1018 hPa | 0 mm | 0 m/s | 0 W/m² | - |
| 1778037464 | 13.89° C | 76% | 1018.1 hPa | 0 mm | 0.45 m/s, 46° | 0 W/m² | - |
* Rain latest hour (hover to see other rain measurements)
** Current wind speed in m/s (hover to see current wind gust speed)